Location: Asheville, NC
(35.6000°N, 82.5500°W)
Time: 23:59:39
(UTC-05:00)

KAITUO 1B - Pass Details

Date: 08 January 2018
Orbit: 500 x 521 km, 97.5° (Epoch: 19 January)

Event Time Altitude Azimuth Distance (km) Brightness Sun altitude
Rises 06:57:42 0° 7° (N) 2,618 ? -8.7°
Reaches altitude 10° 06:59:49 10° 4° (N) 1,725 ? -8.3°
Maximum altitude 07:03:29 61° 284° (WNW) 573 ? -7.6°
Drops below altitude 10° 07:07:06 10° 203° (SSW) 1,701 ? -7.0°
Sets 07:09:11 0° 200° (SSW) 2,578 ? -6.6°
